Back to catalog

STARLINK-32306

AliveCommunicationsVLEO
NORAD 61520·PAYLOAD·🇺🇸 United States

Launched Oct 15, 2024 from Cape Canaveral Space Force Station

Loading…

Next Passes (next 24 hours)

TLE

FreshSource: CelesTrak SupGP

Epoch: Sep 14, 2026, 14:37 UTC

1 61520C 24183M   26257.60951389  .00032312  00000+0  10392-2 0  2579
2 61520  53.1598 343.5482 0001233  75.6008  23.5431 15.31683545    11

Track STARLINK-32306 in real time with AllMySat

Download on the App Store